OneWeb SL0616

operational
NORAD ID: 55157 Int'l Des: 2023-004 Owner: ONEWEBN Country: UK Constellation: oneweb
LEOCIRCULARPOLARONEWEB_TYPE

Über OneWeb SL0616

Beschreibung wird geladen...

Live-Position

3D-Globus wird geladen...

Nächste Überflüge

Höhenverlauf

Altitude vs Time

uPlot chart will show altitude changes over time

Zweizeiliger Elementsatz

1 55157U 23004T 25353.17431048 .00000018 00000-0 13515-4 0 9996
2 55157 87.9113 41.6546 0002537 81.6769 278.4650 13.17647687143992
Epoch: 19. Dez. 2025 • Age: 16 hours

Aktueller Status

Höhe 1206.2 km
Geschwindigkeit 7.25 km/s
Subsatellitenpunkt -31.34°S, 5.15°E
Startdatum 10. Jan. 2023
Alter 2.9 years
Typ internet

Technische Details

Klassifizierung Payload
Masse 148.00 kg
Trockenmasse 140.00 kg
Gesamtmasse 148.00 kg
Länge 1.30 m
Durchmesser 1.00 m
Spannweite 5.00 m
Form Trapezoid+2 pan
Hersteller ONEWUS
Bus-Typ ARROW
Phasenstatus In Orbit
Besitzer/Staat ONEWEBN/UK

Große Konstellationen

Loading constellations...